Liberia, Costa Rica

10:28 PM CST on August 17, 2017 (GMT -0600)
Daniel Oduber Quiros International

Weather History for MRLB - April, 2011

Change the Weather History Date:

Thursday, April 28, 2011

  Actual Average Record
Temperature  
Mean Temperature 85 °F -  
Max Temperature 99 °F 90 °F 98 °F (1998)
Min Temperature 71 °F 76 °F 69 °F (2008)
Cooling Degree Days 20    
Growing Degree Days 35 (Base 50)    
Moisture  
Dew Point 70 °F    
Average Humidity 56    
Maximum Humidity 100    
Minimum Humidity 30    
Precipitation  
Precipitation 0.00 in - - ()
Sea Level Pressure  
Sea Level Pressure 29.83 in    
Wind  
Wind Speed 5 mph ()    
Max Wind Speed 15 mph    
Max Gust Speed -    
Visibility 7.7 miles    
Events      
Averages and records for this station are not official NWS values.
T = Trace of Precipitation, MM = Missing Value Source: Averaged Metar Reports

Daily Weather History Graph

Daily Weather History Graph

Search for Another Location

Airport or City:

Trip Planner

Search our weather history database for the weather conditions in past years. The results will help you decide how hot, cold, wet, or windy it might be!

Date:

Astronomy

Apr. 28, 2011 Rise Set
Actual Time 5:25 AM CST 5:54 PM CST
Civil Twilight 5:03 AM CST 6:15 PM CST
Nautical Twilight 4:38 AM CST 6:41 PM CST
Astronomical Twilight 4:12 AM CST 7:07 PM CST
Moon 2:11 AM CST (4/28) 2:29 PM CST (4/28)
Length of Visible Light 13h 12m
Length of Day
12h 28m
Waning Crescent, 18% of the Moon is Illuminated
Apr 28
Waning Crescent
May 3
New
May 10
First Quarter
May 17
Full
May 24
Last Quarter

Hourly Weather History & Observations

Time (CST) Temp. Heat Index Dew Point Humidity Pressure Visibility Wind Dir Wind Speed Gust Speed Precip Events Conditions
6:00 AM 72 °F - 72 °F 100% 29.82 in 6 mi Calm Calm - -   Mist
6:00 AM 73.4 °F - 71.6 °F 94% 29.86 in 3.7 mi Calm Calm - N/A   Mostly Cloudy
7:00 AM 75.2 °F - 73.4 °F 94% 29.88 in 6.2 mi Variable 2.3 mph - N/A   Mostly Cloudy
8:00 AM 82.4 °F 89.5 °F 75.2 °F 79% 29.91 in - Variable 2.3 mph - N/A   Clear
9:00 AM 87 °F - 74 °F 57% 29.88 in 12 mi West 3.5 mph - -   Clear
9:00 AM 87.8 °F 95.6 °F 73.4 °F 62% 29.91 in - West 3.5 mph - N/A   Clear
10:00 AM 87.8 °F 93.8 °F 71.6 °F 58% 29.90 in 6.2 mi WSW 5.8 mph - N/A   Scattered Clouds
11:00 AM 95.0 °F 101.3 °F 69.8 °F 44% 29.88 in 6.2 mi East 3.5 mph - N/A   Scattered Clouds
12:00 PM 96 °F - 68 °F 30% 29.85 in 12 mi NNE 9.2 mph - -   Partly Cloudy
12:00 PM 96.8 °F 101.8 °F 68.0 °F 39% 29.92 in 6.2 mi NNE 9.2 mph - N/A   Scattered Clouds
1:00 PM 96.8 °F 99.0 °F 64.4 °F 34% 29.81 in 6.2 mi East 11.5 mph - N/A   Scattered Clouds
2:00 PM 96.8 °F 100.7 °F 66.2 °F 37% 29.78 in 6.2 mi ENE 10.4 mph - N/A   Scattered Clouds
3:00 PM 93 °F - 67 °F 32% 29.75 in 12 mi ENE 11.5 mph - -   Scattered Clouds
3:00 PM 93.2 °F 96.2 °F 66.2 °F 41% 29.76 in 6.2 mi ENE 11.5 mph - N/A   Scattered Clouds
4:00 PM 93.2 °F 97.7 °F 68.0 °F 44% 29.75 in 6.2 mi East 11.5 mph - N/A   Scattered Clouds
5:00 PM 91.4 °F 95.4 °F 68.0 °F 46% 29.76 in - ESE 15.0 mph - N/A   Clear
6:00 PM 89 °F - 69 °F 42% 29.73 in 12 mi ESE 10.4 mph - -   Partly Cloudy
6:00 PM 87.8 °F 92.6 °F 69.8 °F 55% 29.78 in - ESE 10.4 mph - N/A   Clear
7:00 PM 86.0 °F 90.4 °F 69.8 °F 58% 29.79 in - ESE 12.7 mph - N/A   Clear
8:00 PM 84.2 °F 89.6 °F 71.6 °F 66% 29.83 in - ESE 10.4 mph - N/A   Clear